This demonstration page uses our WeatherBlox Daily Observations layout. Learn more.

39.01783, -85.05884

Hourly Observations for January 15, 2020

Temp ( °F °C ) Dew Point ( °F °C ) Humidity (%) Winds ( mph kmh ) Pressure ( in mb ) Visibility ( mi km ) Precip ( " mm )
12:52 am 00:52 Mostly Cloudy with Mist and Fog 39 3.9 36 2.2 89 89 VRB 3 6 30.18 1022 4 6.437376 0 0
1:52 am 01:52 Mostly Clear with Mist and Fog 38 3.3 36 2.2 93 93 E 3 6 30.18 1022 3 4.828032 0 0
2:03 am 02:03 Mostly Clear with Mist and Fog 38 3.3 36 2.2 93 93 ENE 3 6 30.21 1023 2.5 4.02336 0 0
2:42 am 02:42 Clear with Patchy Fog 37 2.8 35 1.7 93 93 ENE 6 9 30.21 1023 3 4.828032 0 0
2:52 am 02:52 Clear with Patchy Fog 36 2.2 34 1.1 93 93 E 5 7 30.15 1021 3 4.828032 0 0
3:33 am 03:33 Mostly Clear with Patchy Fog 36 2.2 35 1.7 97 97 NE 7 11 30.21 1023 3 4.828032 0 0
3:48 am 03:48 Mostly Cloudy with Mist and Fog 36 2 36 2 100 100 Calm 30.18 1022 0.75 1.207008 0 0
3:52 am 03:52 Mostly Cloudy with Fog 36 2.2 35 1.7 97 97 E 3 6 30.15 1021 0.5 0.804672 0 0
4:00 am 04:00 Mostly Cloudy with Fog 36 2.2 34 1.1 93 93 ENE 5 7 30.18 1022 1 1.609344 0 0
4:13 am 04:13 Mostly Cloudy with Fog 35 1.7 34 1.1 96 96 E 5 7 30.21 1023 1 1.609344 0 0
4:45 am 04:45 Mostly Cloudy with Fog 36 2.2 34 1.1 93 93 ENE 5 7 30.18 1022 0.25 0.402336 0 0
4:52 am 04:52 Mostly Cloudy with Fog 36 2.2 35 1.7 97 97 ENE 5 7 30.12 1020 0.25 0.402336 0 0
5:01 am 05:01 Mostly Cloudy with Patchy Fog 36 2.2 34 1.1 93 93 ENE 5 7 30.18 1022 1 1.609344 0 0
5:20 am 05:20 Mostly Cloudy with Patchy Fog 35 1.7 34 1.1 96 96 NE 7 11 30.21 1023 0.75 1.207008 0 0
5:34 am 05:34 Mostly Cloudy with Fog 35 1.7 34 1.1 96 96 NE 7 11 30.15 1021 0.25 0.402336 0 0
5:52 am 05:52 Mostly Cloudy with Fog 34 1.1 34 1.1 100 100 Calm 30.12 1020 0.5 0.804672 0 0
6:25 am 06:25 Mostly Cloudy with Fog 36 2.2 34 1.1 93 93 ENE 5 7 30.18 1022 0.5 0.804672 0 0
6:52 am 06:52 Cloudy with Fog 37 2.8 35 1.7 93 93 E 5 7 30.12 1020 0.5 0.804672 0 0
7:32 am 07:32 Cloudy with Mist and Fog 37 2.8 36 2.2 96 96 ESE 3 6 30.15 1021 0.5 0.804672 0 0
7:52 am 07:52 Cloudy with Mist and Fog 37 2.8 35 1.7 93 93 SE 7 11 30.12 1020 0.5 0.804672 0 0
8:52 am 08:52 Cloudy with Mist and Fog 39 3.9 37 2.8 93 93 SE 7 11 30.09 1019 0.5 0.804672 0 0
9:52 am 09:52 Cloudy with Mist and Fog 41 5 39 3.9 93 93 SSE 9 15 30.09 1019 0.5 0.804672 0 0
10:52 am 10:52 Cloudy with Mist and Fog 45 7.2 43 6.1 93 93 SSE 10 17 30.06 1018 0.5 0.804672 0 0
10:54 am 10:54 Cloudy with Mist and Fog 45 7.2 43 6.1 93 93 SSE 9 15 30.12 1020 1.5 2.414016 0 0
11:00 am 11:00 Cloudy with Mist and Fog 46 7.8 43 6.1 89 89 SSE 10 17 30.09 1019 1.5 2.414016 0 0
11:23 am 11:23 Cloudy with Mist and Fog 47 8.3 44 6.7 90 90 SSE 12 19 30.09 1019 4 6.437376 0 0
11:52 am 11:52 Cloudy with Mist and Fog 49 9.4 46 7.8 90 90 SSE 10 17 30.03 1017 2.5 4.02336 0 0
12:14 pm 12:14 Cloudy with Mist and Fog 50 10 47 8.3 89 89 S 12 19 30.03 1017 1 1.609344 0 0
12:52 pm 12:52 Cloudy with Mist and Fog 51 10.6 49 9.4 92 92 S 8 13 30 1016 1 1.609344 0 0
1:52 pm 13:52 Cloudy with Mist and Fog 53 11.7 51 10.6 93 93 S 9 15 29.97 1015 1 1.609344 0.001 0.001
2:52 pm 14:52 Cloudy with Mist and Fog 56 13.3 54 12.2 93 93 SSW 7 11 29.94 1014 1 1.609344 0 0
3:46 pm 15:46 Cloudy with Mist and Fog 57 14 54 12 88 88 SW 6 9 29.97 1015 3 4.828032 0 0
3:52 pm 15:52 Cloudy with Mist and Fog 57 13.9 54 12.2 90 90 SSW 8 13 29.94 1014 3 4.828032 0 0
4:11 pm 16:11 Cloudy with Mist and Fog 57 13.9 54 12.2 90 90 SW 7 11 29.97 1015 3 4.828032 0 0
4:24 pm 16:24 Cloudy with Mist and Fog 58 14.4 54 12.2 87 87 WSW 9 15 29.97 1015 3 4.828032 0 0
4:52 pm 16:52 Cloudy with Mist and Fog 58 14.4 54 12.2 87 87 W 13 20 29.97 1015 3 4.828032 0 0
5:09 pm 17:09 Cloudy with Mist and Fog 57 13.9 54 12.2 90 90 W 14 22 30 1016 3 4.828032 0 0
5:31 pm 17:31 Cloudy 56 13.3 53 11.7 90 90 W 16 26 30 1016 9 14.484096 0 0
5:52 pm 17:52 Cloudy 55 12.8 51 10.6 87 87 W 16 26 30 1016 9 14.484096 0 0
6:52 pm 18:52 Cloudy 52 11.1 46 7.8 80 80 WNW 21 33 30.03 1017 10 16.09344 0 0
7:29 pm 19:29 Cloudy 51 10.6 44 6.7 77 77 WNW 13 20 30.09 1019 10 16.09344 0 0
7:52 pm 19:52 Cloudy 51 10.6 44 6.7 77 77 WNW 13 20 30.06 1018 10 16.09344 0 0
8:52 pm 20:52 Cloudy 50 10 44 6.7 80 80 W 10 17 30.09 1019 10 16.09344 0 0
8:57 pm 20:57 Cloudy 50 10 45 7.2 83 83 W 10 17 30.09 1019 10 16.09344 0 0
9:52 pm 21:52 Mostly Cloudy 49 9.4 43 6.1 80 80 WNW 10 17 30.12 1020 10 16.09344 0 0
10:04 pm 22:04 Mostly Cloudy 48 8.9 43 6.1 83 83 WNW 9 15 30.15 1021 10 16.09344 0 0
10:52 pm 22:52 Mostly Clear 46 7.8 41 5 83 83 W 14 22 30.12 1020 9 14.484096 0 0
11:12 pm 23:12 Cloudy 47 8.3 41 5 80 80 WNW 21 33 30.18 1022 9 14.484096 0 0
11:44 pm 23:44 Partly Cloudy 46 7.8 40 4.4 79 79 WNW 14 22 30.21 1023 9 14.484096 0 0
11:52 pm 23:52 Mostly Cloudy 45 7.2 40 4.4 83 83 WNW 12 19 30.15 1021 9 14.484096 0 0

Powered by AerisWeather